period_start,C,m1,H,J0,J1,J2,J3,J4,J5,JA,JB,JC,JD,JJ,JK,JN,#
2018-02-28 00:04:55,0.01,0.14,0.00,21.67,25.02,28.30,14.17,46.98,1028.82,2036.00,3442.46,3058.98,3511.95,600.08,606.00,4.22,0000 0000 0000 0000 000000
2018-02-28 00:09:56,0.04,0.15,0.00,21.68,25.04,28.29,14.21,47.04,1028.82,2036.00,3441.74,3058.22,3511.12,600.26,606.17,4.27,0000 0000 0000 0000 000000
2018-02-28 00:14:58,0.02,0.15,0.00,21.70,25.05,28.31,14.21,46.98,1028.82,2036.00,3441.02,3057.96,3510.51,600.12,606.03,4.32,0000 0000 0000 0000 000000
2018-02-28 00:19:59,0.04,0.15,0.00,21.70,25.05,28.31,14.18,46.95,1028.82,2036.00,3440.22,3057.20,3509.80,599.91,605.64,4.37,0000 0000 0000 0000 000000
2018-02-28 00:25:00,0.02,0.15,0.00,21.72,25.05,28.31,14.13,46.75,1028.82,2035.99,3439.65,3056.94,3509.02,599.86,605.58,4.42,0000 0000 0000 0000 000000
2018-02-28 00:30:01,0.05,0.15,0.00,21.74,25.07,28.32,14.20,46.78,1028.82,2035.99,3438.80,3056.16,3508.26,600.14,605.92,4.47,0000 0000 0000 0000 000000
2018-02-28 00:35:02,0.01,0.15,0.00,21.75,25.07,28.33,14.09,46.95,1028.82,2035.99,3437.96,3055.97,3507.91,599.70,605.48,4.52,0000 0000 0000 0000 000000
2018-02-28 00:40:04,0.05,0.16,0.00,21.79,25.08,28.35,14.15,46.78,1028.82,2035.99,3437.11,3055.20,3507.06,600.22,605.98,4.57,0000 0000 0000 0000 000000
2018-02-28 00:45:05,0.03,0.16,0.00,21.81,25.10,28.35,14.09,46.88,1028.81,2035.99,3436.34,3054.88,3506.34,600.03,605.59,4.62,0000 0000 0000 0000 000000
2018-02-28 00:50:06,0.03,0.16,0.00,21.85,25.11,28.36,14.12,46.83,1028.77,2035.97,3435.70,3054.10,3505.82,600.03,605.62,4.67,0000 0000 0000 0000 000000
2018-02-28 00:55:08,0.03,0.16,0.00,21.88,25.13,28.37,14.12,46.78,1028.67,2035.96,3434.86,3053.76,3505.03,599.86,605.28,4.72,0000 0000 0000 0000 000000
2018-02-28 01:00:09,0.04,0.16,0.00,21.91,25.15,28.37,14.16,46.83,1028.54,2035.96,3434.04,3053.04,3504.28,600.08,605.37,4.77,0000 0000 0000 0000 000000
2018-02-28 01:05:10,0.02,0.17,0.00,21.95,25.17,28.39,14.17,46.87,1028.41,2035.89,3433.22,3052.70,3503.83,600.10,604.98,4.82,0000 0000 0000 0000 000000
2018-02-28 01:10:12,0.01,0.17,0.00,21.98,25.19,28.39,14.19,46.88,1028.37,2035.75,3432.53,3052.03,3503.02,599.92,604.95,4.87,0000 0000 0000 0000 000000
2018-02-28 01:15:13,0.01,0.17,0.00,22.00,25.21,28.42,14.14,47.02,1028.35,2035.33,3431.78,3051.52,3502.16,599.96,605.00,4.93,0000 0000 0000 0000 000000
2018-02-28 01:20:14,0.01,0.17,0.00,22.02,25.24,28.46,14.17,46.95,1028.34,2035.19,3430.97,3051.00,3501.59,600.14,605.06,4.98,0000 0000 0000 0000 000000
2018-02-28 01:25:16,0.03,0.17,0.00,22.04,25.26,28.47,14.14,46.92,1028.34,2035.06,3430.04,3050.35,3500.84,599.91,604.78,5.03,0000 0000 0000 0000 000000
2018-02-28 01:30:17,0.04,0.17,0.00,22.06,25.29,28.48,14.13,46.82,1028.34,2035.01,3429.19,3049.67,3499.99,600.03,604.85,5.08,0000 0000 0000 0000 000000
2018-02-28 01:35:18,0.03,0.17,0.00,22.11,25.32,28.50,14.18,46.83,1028.34,2035.00,3428.26,3049.02,3499.12,600.16,605.10,5.13,0000 0000 0000 0000 000000
2018-02-28 01:40:19,0.05,0.18,0.00,22.13,25.35,28.53,14.06,46.86,1028.27,2035.00,3427.27,3048.30,3498.46,599.74,604.26,5.18,0000 0000 0000 0000 000000
2018-02-28 01:45:21,0.02,0.18,0.00,22.18,25.37,28.56,14.14,46.92,1028.25,2034.99,3426.42,3047.91,3497.78,600.04,604.65,5.23,0000 0000 0000 0000 000000
2018-02-28 01:50:22,0.04,0.18,0.00,22.22,25.40,28.59,14.07,46.98,1028.18,2034.96,3425.58,3047.08,3496.82,599.96,604.37,5.28,0000 0000 0000 0000 000000
2018-02-28 01:55:23,-0.01,0.18,0.00,22.28,25.43,28.62,14.03,46.98,1028.17,2034.45,3424.73,3046.38,3495.99,599.62,603.90,5.33,0000 0000 0000 0000 000000
2018-02-28 02:00:25,0.02,0.18,0.00,22.33,25.46,28.65,13.99,47.02,1028.10,2034.11,3423.71,3045.87,3495.18,599.86,604.07,5.38,0000 0000 0000 0000 000000
2018-02-28 02:05:26,0.03,0.18,0.00,22.37,25.49,28.68,14.17,46.98,1027.96,2034.02,3422.86,3045.07,3494.24,600.14,604.06,5.43,0000 0000 0000 0000 000000
2018-02-28 02:10:27,0.04,0.18,0.00,22.40,25.51,28.71,14.10,46.97,1027.86,2034.00,3421.87,3044.62,3493.65,599.83,603.67,5.48,0000 0000 0000 0000 000000
2018-02-28 02:15:28,0.02,0.19,0.00,22.43,25.54,28.74,14.25,47.06,1027.85,2034.00,3421.04,3044.01,3492.95,600.37,604.16,5.53,0000 0000 0000 0000 000000
2018-02-28 02:20:30,0.05,0.19,0.00,22.48,25.57,28.76,14.08,47.02,1027.85,2034.00,3420.16,3043.38,3492.10,599.69,603.56,5.58,0000 0000 0000 0000 000000
2018-02-28 02:25:31,0.03,0.19,0.00,22.52,25.60,28.79,14.17,46.97,1027.85,2033.98,3419.55,3042.96,3491.51,599.94,603.49,5.63,0000 0000 0000 0000 000000
2018-02-28 02:30:32,0.04,0.19,0.00,22.56,25.63,28.80,14.15,47.00,1027.85,2033.97,3418.64,3042.18,3490.72,600.12,603.64,5.68,0000 0000 0000 0000 000000
2018-02-28 02:35:33,0.02,0.19,0.00,22.60,25.66,28.84,13.99,46.96,1027.85,2033.79,3417.75,3041.70,3489.94,600.02,603.59,5.73,0000 0000 0000 0000 000000
2018-02-28 02:40:34,0.01,0.19,0.00,22.63,25.69,28.87,14.05,46.94,1027.84,2033.56,3416.96,3041.02,3489.17,600.14,603.47,5.78,0000 0000 0000 0000 000000
2018-02-28 02:45:36,0.01,0.19,0.00,22.67,25.72,28.88,14.10,46.88,1027.80,2033.14,3416.09,3040.43,3488.39,600.01,603.33,5.83,0000 0000 0000 0000 000000
2018-02-28 02:50:37,0.02,0.20,0.00,22.71,25.75,28.92,14.12,47.02,1027.71,2033.03,3415.30,3039.98,3487.66,599.94,603.02,5.88,0000 0000 0000 0000 000000
2018-02-28 02:55:39,0.05,0.20,0.00,22.74,25.78,28.94,14.05,47.02,1027.54,2033.00,3414.35,3039.19,3486.79,600.06,602.94,5.93,0000 0000 0000 0000 000000
2018-02-28 03:00:40,0.04,0.20,0.00,22.78,25.81,28.96,14.11,46.89,1027.50,2032.99,3413.58,3038.56,3485.99,600.42,603.37,5.98,0000 0000 0000 0000 000000
2018-02-28 03:05:41,0.03,0.20,0.00,22.84,25.84,28.99,14.03,46.90,1027.44,2032.98,3412.55,3037.97,3485.15,599.50,602.25,6.03,0000 0000 0000 0000 000000
2018-02-28 03:10:42,0.03,0.20,0.00,22.88,25.87,29.03,14.06,46.73,1027.52,2032.92,3411.75,3037.18,3484.49,600.13,602.78,6.08,0000 0000 0000 0000 000000
2018-02-28 03:15:43,0.00,0.20,0.00,22.91,25.91,29.05,14.13,46.83,1027.48,2032.63,3410.95,3036.78,3483.86,600.05,602.61,6.13,0000 0000 0000 0000 000000
2018-02-28 03:20:45,0.01,0.21,0.00,22.95,25.94,29.09,14.07,46.79,1027.45,2032.41,3410.10,3036.08,3483.07,599.89,602.34,6.18,0000 0000 0000 0000 000000
2018-02-28 03:25:46,0.03,0.21,0.00,22.98,25.97,29.11,14.02,46.80,1027.43,2032.16,3409.27,3035.70,3482.48,600.08,602.58,6.23,0000 0000 0000 0000 000000
2018-02-28 03:30:47,0.03,0.21,0.00,23.01,26.01,29.14,13.96,46.77,1027.39,2032.02,3408.47,3034.99,3481.54,599.76,602.10,6.28,0000 0000 0000 0000 000000
2018-02-28 03:35:49,0.03,0.21,0.00,23.05,26.03,29.18,14.02,46.82,1027.42,2032.00,3407.69,3034.26,3480.92,599.99,602.36,6.33,0000 0000 0000 0000 000000
2018-02-28 03:40:50,0.03,0.21,0.00,23.08,26.07,29.20,13.94,46.84,1027.39,2032.00,3406.78,3033.91,3480.09,599.40,601.61,6.38,0000 0000 0000 0000 000000
2018-02-28 03:45:51,0.04,0.21,0.00,23.12,26.10,29.24,13.96,46.95,1027.37,2031.99,3405.93,3033.09,3479.33,599.98,602.04,6.43,0000 0000 0000 0000 000000
2018-02-28 03:50:52,0.04,0.21,0.00,23.16,26.14,29.28,13.99,46.88,1027.38,2031.98,3405.04,3032.54,3478.46,599.86,601.89,6.48,0000 0000 0000 0000 000000
2018-02-28 03:55:53,0.01,0.22,0.00,23.19,26.17,29.31,13.98,46.84,1027.38,2031.89,3404.15,3031.98,3477.81,599.70,601.67,6.53,0000 0000 0000 0000 000000
2018-02-28 04:00:55,0.01,0.22,0.00,23.23,26.21,29.34,13.95,46.89,1027.39,2031.42,3403.32,3031.22,3477.02,599.50,601.35,6.58,0000 0000 0000 0000 000000
2018-02-28 04:05:56,0.01,0.22,0.00,23.28,26.25,29.37,14.00,46.89,1027.37,2031.07,3402.55,3030.74,3476.20,599.94,601.65,6.63,0000 0000 0000 0000 000000
2018-02-28 04:10:57,0.03,0.22,0.00,23.32,26.28,29.42,14.06,46.85,1027.36,2031.01,3401.69,3030.03,3475.40,600.14,601.83,6.68,0000 0000 0000 0000 000000
2018-02-28 04:15:59,0.05,0.22,0.00,23.36,26.32,29.44,14.08,46.91,1027.36,2030.99,3400.80,3029.35,3474.57,600.20,601.73,6.73,0000 0000 0000 0000 000000
2018-02-28 04:21:00,0.02,0.22,0.00,23.40,26.36,29.49,14.05,46.81,1027.36,2030.96,3399.95,3028.80,3473.81,600.11,601.59,6.78,0000 0000 0000 0000 000000
2018-02-28 04:26:01,0.02,0.23,0.00,23.45,26.40,29.53,14.02,46.87,1027.36,2030.72,3399.05,3028.04,3472.97,599.70,601.14,6.83,0000 0000 0000 0000 000000
2018-02-28 04:31:03,0.01,0.22,0.00,23.48,26.44,29.57,14.06,46.99,1027.36,2030.27,3398.12,3027.51,3472.16,600.26,601.63,6.88,0000 0000 0000 0000 000000
2018-02-28 04:36:04,0.02,0.23,0.00,23.50,26.48,29.60,14.05,46.92,1027.35,2030.06,3397.36,3026.97,3471.58,599.82,601.23,6.93,0000 0000 0000 0000 000000
2018-02-28 04:41:05,0.04,0.23,0.00,23.55,26.51,29.64,14.07,46.96,1027.35,2030.01,3396.48,3026.17,3470.87,599.64,600.94,6.98,0000 0000 0000 0000 000000
2018-02-28 04:46:07,0.03,0.23,0.00,23.58,26.56,29.69,13.95,46.84,1027.34,2030.01,3395.81,3025.82,3470.00,599.86,601.01,7.03,0000 0000 0000 0000 000000
2018-02-28 04:51:08,0.04,0.23,0.00,23.61,26.58,29.72,14.11,46.87,1027.35,2030.00,3394.90,3025.04,3469.14,600.01,600.98,7.08,0000 0000 0000 0000 000000
2018-02-28 04:56:09,0.04,0.23,0.00,23.64,26.62,29.77,13.98,46.74,1027.35,2029.97,3394.01,3024.29,3468.27,599.90,600.83,7.13,0000 0000 0000 0000 000000
2018-02-28 05:01:10,0.00,0.23,0.00,23.68,26.66,29.80,14.08,46.84,1027.33,2029.75,3393.16,3023.95,3467.69,599.76,600.56,7.18,0000 0000 0000 0000 000000
2018-02-28 05:06:12,-0.00,0.23,0.00,23.71,26.70,29.86,14.01,46.78,1027.25,2029.18,3392.47,3023.16,3466.88,599.83,600.73,7.23,0000 0000 0000 0000 000000
2018-02-28 05:11:13,0.03,0.24,0.00,23.74,26.73,29.89,14.02,46.72,1027.13,2029.02,3391.49,3022.60,3466.05,599.94,600.64,7.29,0000 0000 0000 0000 000000
2018-02-28 05:16:14,0.03,0.24,0.00,23.79,26.77,29.93,13.91,46.69,1027.02,2029.00,3390.78,3022.01,3465.37,599.88,600.43,7.34,0000 0000 0000 0000 000000
2018-02-28 05:21:16,0.04,0.24,0.00,23.83,26.81,29.97,14.04,46.67,1026.92,2029.00,3389.94,3021.29,3464.73,599.79,600.18,7.39,0000 0000 0000 0000 000000
2018-02-28 05:26:17,0.02,0.24,0.00,23.85,26.84,30.02,13.97,46.67,1026.90,2028.99,3389.02,3020.91,3464.00,599.72,600.07,7.44,0000 0000 0000 0000 000000
2018-02-28 05:31:18,0.03,0.24,0.00,23.86,26.87,30.06,14.06,46.67,1026.89,2028.82,3388.12,3020.07,3463.15,599.91,600.17,7.49,0000 0000 0000 0000 000000
2018-02-28 05:36:20,0.01,0.24,0.00,23.87,26.91,30.09,13.98,46.67,1026.88,2028.38,3387.21,3019.46,3462.29,599.63,599.90,7.54,0000 0000 0000 0000 000000
2018-02-28 05:41:21,0.00,0.24,0.00,23.91,26.95,30.12,14.00,46.67,1026.88,2028.05,3386.43,3018.98,3461.72,599.90,600.19,7.59,0000 0000 0000 0000 000000
2018-02-28 05:46:22,0.04,0.25,0.00,23.94,26.99,30.16,13.97,46.78,1026.87,2028.01,3385.62,3018.21,3460.99,599.85,599.96,7.64,0000 0000 0000 0000 000000
2018-02-28 05:51:23,0.03,0.25,0.00,23.96,27.02,30.19,14.02,46.73,1026.88,2028.00,3384.94,3017.71,3460.05,600.26,600.41,7.69,0000 0000 0000 0000 000000
2018-02-28 05:56:25,0.04,0.25,0.00,23.99,27.06,30.22,13.97,46.63,1026.88,2027.99,3384.10,3017.03,3459.11,600.20,600.24,7.74,0000 0000 0000 0000 000000
2018-02-28 06:01:26,0.04,0.25,0.00,24.01,27.09,30.25,14.01,46.58,1026.88,2027.94,3383.39,3016.51,3458.51,600.04,599.97,7.79,0000 0000 0000 0000 000000
2018-02-28 06:06:27,-0.02,0.25,0.00,24.04,27.13,30.29,14.02,46.62,1026.88,2027.60,3382.56,3016.00,3457.85,599.67,599.59,7.84,0000 0000 0000 0000 000000
2018-02-28 06:11:29,0.02,0.25,0.00,24.08,27.16,30.32,13.95,46.73,1026.89,2027.25,3381.71,3015.36,3457.09,599.74,599.67,7.89,0000 0000 0000 0000 000000
2018-02-28 06:16:30,0.02,0.25,0.00,24.10,27.19,30.36,14.04,46.68,1026.88,2027.04,3380.87,3014.84,3456.40,599.89,599.48,7.94,0000 0000 0000 0000 000000
2018-02-28 06:21:31,0.03,0.25,0.00,24.12,27.23,30.39,13.98,46.67,1026.89,2027.00,3379.96,3014.07,3455.82,600.06,599.92,7.99,0000 0000 0000 0000 000000
2018-02-28 06:26:32,0.04,0.26,0.00,24.16,27.26,30.41,13.97,46.76,1026.89,2027.00,3379.07,3013.61,3455.04,599.80,599.51,8.04,0000 0000 0000 0000 000000
2018-02-28 06:31:33,0.03,0.26,0.00,24.18,27.29,30.44,13.95,46.73,1026.90,2026.99,3378.42,3013.01,3454.26,599.75,599.47,8.09,0000 0000 0000 0000 000000
2018-02-28 06:36:35,0.03,0.26,0.00,24.20,27.33,30.47,14.00,46.71,1026.90,2026.87,3377.57,3012.30,3453.52,599.80,599.49,8.14,0000 0000 0000 0000 000000
2018-02-28 06:41:36,-0.01,0.26,0.00,24.21,27.36,30.50,14.02,46.72,1026.90,2026.50,3376.72,3011.86,3452.85,600.19,599.75,8.19,0000 0000 0000 0000 000000
2018-02-28 06:46:37,0.01,0.26,0.00,24.22,27.39,30.53,14.07,46.71,1026.89,2026.10,3375.93,3011.06,3452.04,600.27,599.74,8.24,0000 0000 0000 0000 000000
2018-02-28 06:51:39,0.04,0.26,0.00,24.25,27.42,30.56,13.99,46.68,1026.90,2026.01,3375.09,3010.66,3451.37,599.85,599.28,8.29,0000 0000 0000 0000 000000
2018-02-28 06:56:40,0.03,0.26,0.00,24.29,27.45,30.60,14.00,46.67,1026.89,2026.00,3374.46,3010.00,3450.39,599.90,599.22,8.34,0000 0000 0000 0000 000000
2018-02-28 07:01:41,0.03,0.27,0.00,24.30,27.48,30.62,13.97,46.57,1026.88,2025.99,3373.61,3009.48,3449.98,599.68,599.13,8.39,0000 0000 0000 0000 000000
2018-02-28 07:06:43,0.02,0.27,0.00,24.31,27.50,30.67,13.94,46.63,1026.87,2025.98,3372.80,3009.00,3449.18,599.92,599.37,8.44,0000 0000 0000 0000 000000
2018-02-28 07:11:44,0.04,0.27,0.00,24.34,27.52,30.69,13.95,46.74,1026.87,2025.95,3371.93,3008.33,3448.57,599.48,598.89,8.49,0000 0000 0000 0000 000000
2018-02-28 07:16:45,-0.01,0.27,0.00,24.35,27.55,30.71,13.88,46.68,1026.87,2025.72,3370.99,3007.93,3447.91,599.39,598.81,8.54,0000 0000 0000 0000 000000
2018-02-28 07:21:47,0.02,0.27,0.00,24.36,27.57,30.75,14.03,46.75,1026.87,2025.27,3370.13,3007.17,3447.07,600.22,599.50,8.59,0000 0000 0000 0000 000000
2018-02-28 07:26:48,0.01,0.27,0.00,24.36,27.59,30.76,13.98,46.63,1026.87,2025.07,3369.42,3006.97,3446.35,600.01,599.28,8.64,0000 0000 0000 0000 000000
2018-02-28 07:31:49,0.03,0.27,0.00,24.39,27.61,30.79,14.05,46.68,1026.87,2025.01,3368.55,3006.18,3445.85,600.10,599.28,8.69,0000 0000 0000 0000 000000
2018-02-28 07:36:50,0.03,0.27,0.00,24.40,27.63,30.81,14.01,46.60,1026.88,2025.00,3367.64,3005.78,3445.03,599.82,599.11,8.74,0000 0000 0000 0000 000000
2018-02-28 07:41:52,0.03,0.28,0.00,24.41,27.66,30.84,13.99,46.61,1026.89,2025.00,3366.95,3005.06,3444.29,599.90,599.09,8.79,0000 0000 0000 0000 000000
2018-02-28 07:46:53,0.03,0.28,0.00,24.42,27.67,30.86,14.02,46.67,1026.89,2025.00,3366.08,3004.64,3443.89,599.95,599.09,8.84,0000 0000 0000 0000 000000
2018-02-28 07:51:54,0.03,0.28,0.00,24.42,27.70,30.87,14.05,46.55,1026.89,2024.99,3365.39,3004.04,3443.06,600.29,599.35,8.89,0000 0000 0000 0000 000000
2018-02-28 07:56:56,0.03,0.28,0.00,24.43,27.72,30.91,14.04,46.59,1026.88,2024.97,3364.62,3003.68,3442.39,599.77,599.05,8.94,0000 0000 0000 0000 000000
2018-02-28 08:01:57,0.02,0.28,0.00,24.45,27.73,30.92,13.97,46.55,1026.88,2024.86,3363.94,3003.02,3441.61,599.86,599.00,8.99,0000 0000 0000 0000 000000
2018-02-28 08:06:59,-0.01,0.28,0.00,24.44,27.75,30.95,14.01,46.52,1026.89,2024.45,3363.04,3002.46,3441.01,599.89,599.02,9.04,0000 0000 0000 0000 000000
2018-02-28 08:12:00,0.02,0.28,0.00,24.45,27.77,30.97,14.01,46.52,1026.88,2024.26,3362.15,3002.01,3440.39,600.07,599.13,9.09,0000 0000 0000 0000 000000
2018-02-28 08:17:01,0.02,0.28,0.00,24.45,27.79,30.98,14.02,46.53,1026.90,2024.15,3361.50,3001.55,3439.95,600.08,599.34,9.14,0000 0000 0000 0000 000000
2018-02-28 08:22:02,0.02,0.29,0.00,24.45,27.80,30.99,13.97,46.55,1026.88,2024.07,3360.89,3001.01,3439.13,599.79,598.92,9.19,0000 0000 0000 0000 000000
2018-02-28 08:27:03,0.03,0.29,0.00,24.45,27.82,31.02,14.02,46.61,1026.87,2024.03,3360.04,3000.66,3438.75,600.07,599.20,9.24,0000 0000 0000 0000 000000
2018-02-28 08:32:05,0.03,0.29,0.00,24.45,27.83,31.02,14.04,46.68,1026.87,2024.01,3359.18,3000.03,3438.04,600.18,599.30,9.29,0000 0000 0000 0000 000000
2018-02-28 08:37:06,0.03,0.29,0.00,24.45,27.85,31.05,14.04,46.60,1026.87,2024.00,3358.73,2999.77,3437.31,599.87,598.97,9.34,0000 0000 0000 0000 000000
2018-02-28 08:42:07,0.02,0.29,0.00,24.46,27.86,31.04,14.08,46.62,1026.87,2024.00,3357.99,2999.07,3436.93,600.22,599.40,9.39,0000 0000 0000 0000 000000
2018-02-28 08:47:08,0.03,0.29,0.00,24.45,27.87,31.08,14.03,46.66,1026.88,2024.00,3357.18,2998.83,3436.15,600.09,599.16,9.44,0000 0000 0000 0000 000000
2018-02-28 08:52:09,0.04,0.30,0.00,24.46,27.88,31.08,14.03,46.66,1026.88,2024.00,3356.34,2998.07,3435.80,600.10,599.18,9.49,0000 0000 0000 0000 000000
2018-02-28 08:57:11,0.02,0.30,0.00,24.45,27.90,31.10,13.91,46.59,1026.88,2023.99,3355.95,2997.85,3434.93,599.78,599.03,9.54,0000 0000 0000 0000 000000
2018-02-28 09:02:12,0.05,0.30,0.00,24.45,27.90,31.10,14.04,46.60,1026.88,2023.98,3355.10,2997.08,3434.11,600.16,599.30,9.60,0000 0000 0000 0000 000000
2018-02-28 09:07:13,0.02,0.30,0.00,24.45,27.90,31.11,14.00,46.58,1026.88,2023.98,3354.44,2996.95,3433.80,599.96,599.04,9.65,0000 0000 0000 0000 000000
2018-02-28 09:12:15,0.03,0.30,0.00,24.46,27.92,31.12,13.99,46.46,1026.88,2023.93,3353.89,2996.18,3433.04,600.26,599.23,9.70,0000 0000 0000 0000 000000
2018-02-28 09:17:16,0.02,0.30,0.00,24.46,27.92,31.13,13.97,46.47,1026.88,2023.91,3353.02,2995.98,3432.58,599.92,599.01,9.75,0000 0000 0000 0000 000000
2018-02-28 09:22:17,0.05,0.31,0.00,24.46,27.92,31.13,14.06,46.49,1026.87,2023.85,3352.09,2995.30,3431.99,600.22,599.32,9.80,0000 0000 0000 0000 000000
2018-02-28 09:27:18,0.01,0.31,0.00,24.43,27.92,31.14,14.01,46.43,1026.87,2023.64,3351.30,2994.95,3431.13,599.98,599.12,9.85,0000 0000 0000 0000 000000
2018-02-28 09:32:19,0.04,0.31,0.00,24.42,27.92,31.14,14.00,46.39,1026.87,2023.55,3350.47,2994.15,3430.46,600.21,599.40,9.90,0000 0000 0000 0000 000000
2018-02-28 09:37:20,0.02,0.31,0.00,24.40,27.92,31.16,14.03,46.50,1026.88,2023.42,3349.46,2993.77,3429.87,599.96,599.21,9.95,0000 0000 0000 0000 000000
2018-02-28 09:42:22,0.02,0.31,0.00,24.40,27.92,31.15,14.07,46.55,1026.87,2023.24,3348.64,2993.04,3429.06,600.24,599.46,10.00,0000 0000 0000 0000 000000
2018-02-28 09:47:23,0.04,0.31,0.00,24.40,27.92,31.15,14.02,46.43,1026.87,2023.18,3347.58,2992.49,3428.37,599.98,599.20,10.05,0000 0000 0000 0000 000000
2018-02-28 09:52:25,0.03,0.31,0.00,24.38,27.92,31.15,13.95,46.51,1026.87,2023.15,3346.56,2991.99,3427.81,599.62,598.94,10.10,0000 0000 0000 0000 000000
2018-02-28 09:57:26,0.05,0.32,0.00,24.37,27.92,31.15,14.05,46.61,1026.87,2023.35,3345.86,2991.45,3427.08,600.17,599.52,10.15,0000 0000 0000 0000 000000
2018-02-28 10:02:27,0.01,0.32,0.00,24.36,27.93,31.15,13.97,46.52,1026.87,2023.40,3345.05,2991.01,3426.80,599.81,599.08,10.20,0000 0000 0000 0000 000000
2018-02-28 10:07:28,0.02,0.32,0.00,24.37,27.93,31.15,13.98,46.47,1026.87,2023.15,3344.19,2990.56,3426.04,599.95,599.30,10.25,0000 0000 0000 0000 000000
2018-02-28 10:12:29,0.02,0.32,0.00,24.36,27.94,31.15,14.00,46.48,1026.87,2023.16,3343.69,2990.02,3425.67,599.61,598.96,10.30,0000 0000 0000 0000 000000
2018-02-28 10:17:30,0.02,0.32,0.00,24.35,27.94,31.14,14.03,46.49,1026.87,2023.19,3343.05,2989.93,3425.02,599.78,599.25,10.35,0000 0000 0000 0000 000000
2018-02-28 10:22:32,0.04,0.32,0.00,24.34,27.95,31.15,14.05,46.44,1026.84,2023.09,3342.51,2989.16,3424.49,599.88,599.19,10.40,0000 0000 0000 0000 000000
2018-02-28 10:27:33,0.01,0.33,0.00,24.33,27.94,31.16,14.03,46.53,1026.80,2023.05,3341.79,2988.99,3424.00,599.99,599.23,10.45,0000 0000 0000 0000 000000
2018-02-28 10:32:34,0.04,0.33,0.00,24.32,27.94,31.15,13.98,46.49,1026.60,2023.09,3341.04,2988.47,3423.44,599.99,599.16,10.50,0000 0000 0000 0000 000000
2018-02-28 10:37:34,0.01,0.33,0.00,24.30,27.94,31.14,13.93,46.41,1026.47,2023.05,3340.43,2988.01,3422.93,599.82,599.01,10.55,0000 0000 0000 0000 000000
2018-02-28 10:42:35,0.02,0.33,0.00,24.27,27.93,31.14,14.01,46.47,1026.52,2023.11,3339.89,2987.92,3422.30,600.35,599.38,10.60,0000 0000 0000 0000 000000
2018-02-28 10:47:36,0.03,0.33,0.00,24.27,27.93,31.13,13.95,46.57,1026.49,2023.10,3339.08,2987.14,3421.97,599.63,598.88,10.65,0000 0000 0000 0000 000000
2018-02-28 10:52:38,0.03,0.33,0.00,24.26,27.92,31.12,13.98,46.66,1026.45,2023.08,3338.41,2986.95,3421.24,600.03,599.34,10.70,0000 0000 0000 0000 000000
2018-02-28 10:57:39,0.02,0.33,0.00,24.26,27.92,31.12,14.12,46.66,1026.42,2023.09,3337.85,2986.38,3420.99,600.11,599.27,10.75,0000 0000 0000 0000 000000
2018-02-28 11:02:41,0.03,0.34,0.00,24.24,27.92,31.10,14.03,46.74,1026.40,2023.12,3337.07,2986.02,3420.43,600.07,599.30,10.80,0000 0000 0000 0000 000000
2018-02-28 11:07:42,0.01,0.34,0.00,24.23,27.92,31.10,13.84,46.58,1026.40,2023.14,3336.79,2985.92,3419.96,599.75,599.01,10.85,0000 0000 0000 0000 000000
2018-02-28 11:12:43,0.04,0.34,0.00,24.23,27.92,31.10,14.09,46.66,1026.40,2023.06,3336.05,2985.17,3419.15,599.85,599.10,10.90,0000 0000 0000 0000 000000
2018-02-28 11:17:44,0.01,0.34,0.00,24.22,27.92,31.10,14.00,46.54,1026.40,2023.06,3335.44,2984.99,3418.94,600.00,599.25,10.95,0000 0000 0000 0000 000000
2018-02-28 11:22:46,0.03,0.34,0.00,24.20,27.92,31.09,13.87,46.59,1026.40,2023.09,3334.92,2984.60,3418.24,599.69,599.05,11.00,0000 0000 0000 0000 000000
2018-02-28 11:27:47,0.02,0.34,0.00,24.19,27.90,31.07,14.06,46.73,1026.41,2023.07,3334.14,2984.02,3417.98,599.82,599.19,11.05,0000 0000 0000 0000 000000
2018-02-28 11:32:48,0.02,0.34,0.00,24.17,27.90,31.07,13.99,46.63,1026.40,2023.10,3333.55,2983.98,3417.38,599.92,599.36,11.10,0000 0000 0000 0000 000000
2018-02-28 11:37:50,0.04,0.35,0.00,24.16,27.90,31.06,14.09,46.69,1026.38,2023.21,3333.01,2983.50,3417.00,600.25,599.83,11.15,0000 0000 0000 0000 000000
2018-02-28 11:42:51,0.03,0.35,0.00,24.13,27.90,31.05,14.14,46.75,1026.38,2023.30,3332.28,2983.02,3416.69,600.20,599.67,11.20,0000 0000 0000 0000 000000
2018-02-28 11:47:52,0.02,0.35,0.00,24.12,27.88,31.03,14.16,46.83,1026.38,2023.31,3331.90,2982.92,3416.02,600.26,599.75,11.25,0000 0000 0000 0000 000000
2018-02-28 11:52:54,0.03,0.35,0.00,24.12,27.87,31.03,13.86,46.69,1026.32,2023.19,3331.11,2982.20,3415.53,599.85,599.31,11.30,0000 0000 0000 0000 000000
2018-02-28 11:57:55,0.03,0.35,0.00,24.10,27.87,31.03,14.19,46.82,1026.14,2023.38,3330.80,2982.00,3415.02,600.40,599.81,11.35,0000 0000 0000 0000 000000
2018-02-28 12:02:57,0.03,0.35,0.00,24.08,27.85,31.03,13.96,46.64,1025.99,2023.46,3330.05,2981.96,3414.88,599.99,599.34,11.40,0000 0000 0000 0000 000000
2018-02-28 12:07:58,0.06,0.36,0.00,24.06,27.85,31.02,14.02,46.66,1025.91,2023.80,3329.63,2981.53,3414.35,600.07,599.41,11.45,0000 0000 0000 0000 000000
2018-02-28 12:12:59,0.00,0.36,0.00,24.04,27.83,31.00,13.97,46.73,1025.90,2023.78,3329.01,2981.02,3413.96,600.20,599.65,11.50,0000 0000 0000 0000 000000
2018-02-28 12:18:01,0.03,0.36,0.00,24.02,27.82,30.98,13.99,46.68,1025.90,2023.80,3328.60,2981.00,3413.50,599.87,599.27,11.55,0000 0000 0000 0000 000000
2018-02-28 12:23:02,0.02,0.36,0.00,24.02,27.80,30.97,13.99,46.61,1025.90,2023.95,3328.03,2980.81,3413.02,599.86,599.29,11.60,0000 0000 0000 0000 000000
2018-02-28 12:28:04,0.02,0.36,0.00,24.00,27.80,30.97,14.12,46.76,1025.90,2023.93,3327.57,2980.09,3412.97,600.35,599.86,11.65,0000 0000 0000 0000 000000
2018-02-28 12:33:05,0.01,0.36,0.00,23.97,27.78,30.95,14.10,46.85,1025.88,2023.97,3327.01,2980.00,3412.50,600.23,599.70,11.70,0000 0000 0000 0000 000000
2018-02-28 12:38:06,0.01,0.36,0.00,23.96,27.77,30.94,14.05,46.72,1025.76,2023.99,3326.74,2979.98,3412.03,599.98,599.36,11.75,0000 0000 0000 0000 000000
2018-02-28 12:43:07,0.03,0.36,0.00,23.93,27.75,30.94,14.02,46.78,1025.67,2023.99,3326.03,2979.40,3411.93,599.90,599.36,11.80,0000 0000 0000 0000 000000
2018-02-28 12:48:08,0.02,0.37,0.00,23.92,27.75,30.93,14.00,46.72,1025.47,2023.99,3325.53,2979.00,3411.16,599.90,599.21,11.86,0000 0000 0000 0000 000000
2018-02-28 12:53:09,0.01,0.37,0.00,23.92,27.73,30.92,14.00,46.68,1025.42,2023.99,3325.01,2978.92,3410.97,599.89,599.22,11.91,0000 0000 0000 0000 000000
2018-02-28 12:58:10,0.04,0.37,0.00,23.89,27.72,30.90,14.17,46.70,1025.42,2023.99,3324.54,2978.29,3410.24,600.23,599.53,11.96,0000 0000 0000 0000 000000
2018-02-28 13:03:12,0.01,0.37,0.00,23.87,27.70,30.88,14.04,46.67,1025.42,2023.99,3324.01,2978.01,3410.00,599.91,599.34,12.01,0000 0000 0000 0000 000000